Tabellarische Ansicht des 28.4.2021


Die einzelnen Werte des Tages

Uhrzeit Temperatur Luftdruck Luftfeuchte Wind Hi-Wind Taupunkt THW Index Wind Chill Heat Index Solar- strahlung Regen

00:00

6.8 C

1006.1 hpa

49 %

0.0 km/h aus 91

1.6 km/h aus NE

-3.2 C

6.2 C

6.8 C

6.2 C

0 W/m

0.00 mm

00:05

6.8 C

1006.1 hpa

49 %

0.0 km/h aus 84

0.0 km/h aus ---

-3.2 C

6.2 C

6.8 C

6.2 C

0 W/m

0.00 mm

00:10

6.7 C

1006.1 hpa

50 %

0.0 km/h aus 85

0.0 km/h aus ---

-3.0 C

6.1 C

6.7 C

6.1 C

0 W/m

0.00 mm

00:15

6.6 C

1006.1 hpa

50 %

1.6 km/h aus 85

4.8 km/h aus NNE

-3.1 C

6.0 C

6.6 C

6.0 C

0 W/m

0.00 mm

00:20

6.5 C

1006.1 hpa

50 %

0.0 km/h aus 84

4.8 km/h aus NNE

-3.2 C

5.9 C

6.5 C

5.9 C

0 W/m

0.00 mm

00:25

6.4 C

1006.1 hpa

50 %

0.0 km/h aus 84

0.0 km/h aus ---

-3.3 C

5.8 C

6.4 C

5.8 C

0 W/m

0.00 mm

00:30

6.3 C

1005.9 hpa

51 %

1.6 km/h aus 80

4.8 km/h aus NNE

-3.1 C

5.7 C

6.3 C

5.7 C

0 W/m

0.00 mm

00:35

6.2 C

1005.9 hpa

51 %

0.0 km/h aus 83

6.4 km/h aus N

-3.2 C

5.6 C

6.2 C

5.6 C

0 W/m

0.00 mm

00:40

6.1 C

1005.9 hpa

51 %

0.0 km/h aus 83

4.8 km/h aus N

-3.3 C

5.5 C

6.1 C

5.5 C

0 W/m

0.00 mm

00:45

6.1 C

1005.9 hpa

52 %

0.0 km/h aus 83

3.2 km/h aus N

-3.1 C

5.4 C

6.1 C

5.4 C

0 W/m

0.00 mm

00:50

5.9 C

1005.9 hpa

52 %

1.6 km/h aus 86

8.0 km/h aus NNE

-3.2 C

5.3 C

5.9 C

5.3 C

0 W/m

0.00 mm

00:55

5.9 C

1005.9 hpa

52 %

1.6 km/h aus 84

6.4 km/h aus NNE

-3.2 C

5.3 C

5.9 C

5.3 C

0 W/m

0.00 mm

01:00

5.8 C

1005.8 hpa

52 %

1.6 km/h aus 82

4.8 km/h aus NNE

-3.3 C

5.2 C

5.8 C

5.2 C

0 W/m

0.00 mm

01:05

5.8 C

1005.8 hpa

52 %

0.0 km/h aus 88

0.0 km/h aus ---

-3.3 C

5.2 C

5.8 C

5.2 C

0 W/m

0.00 mm

01:10

5.7 C

1005.8 hpa

52 %

1.6 km/h aus 83

8.0 km/h aus NNE

-3.4 C

5.1 C

5.7 C

5.1 C

0 W/m

0.00 mm

01:15

5.7 C

1005.7 hpa

53 %

1.6 km/h aus 87

6.4 km/h aus NNE

-3.2 C

5.1 C

5.7 C

5.1 C

0 W/m

0.00 mm

01:20

5.6 C

1005.7 hpa

53 %

1.6 km/h aus 77

6.4 km/h aus NNE

-3.2 C

5.1 C

5.6 C

5.1 C

0 W/m

0.00 mm

01:25

5.6 C

1005.7 hpa

53 %

0.0 km/h aus 83

0.0 km/h aus ---

-3.2 C

5.1 C

5.6 C

5.1 C

0 W/m

0.00 mm

01:30

5.6 C

1005.6 hpa

53 %

0.0 km/h aus 86

4.8 km/h aus NNE

-3.3 C

5.0 C

5.6 C

5.0 C

0 W/m

0.00 mm

01:35

5.5 C

1005.6 hpa

53 %

1.6 km/h aus 91

4.8 km/h aus NNE

-3.3 C

4.9 C

5.5 C

4.9 C

0 W/m

0.00 mm

01:40

5.5 C

1005.6 hpa

53 %

0.0 km/h aus 84

0.0 km/h aus ---

-3.3 C

4.9 C

5.5 C

4.9 C

0 W/m

0.00 mm

01:45

5.5 C

1005.5 hpa

53 %

0.0 km/h aus 81

0.0 km/h aus ---

-3.3 C

4.9 C

5.5 C

4.9 C

0 W/m

0.00 mm

01:50

5.4 C

1005.5 hpa

53 %

0.0 km/h aus 85

0.0 km/h aus ---

-3.4 C

4.9 C

5.4 C

4.9 C

0 W/m

0.00 mm

01:55

5.4 C

1005.5 hpa

53 %

0.0 km/h aus 79

0.0 km/h aus ---

-3.4 C

4.8 C

5.4 C

4.8 C

0 W/m

0.00 mm

02:00

5.3 C

1005.2 hpa

53 %

0.0 km/h aus 79

0.0 km/h aus ---

-3.5 C

4.8 C

5.3 C

4.8 C

0 W/m

0.00 mm

02:05

5.3 C

1005.2 hpa

54 %

0.0 km/h aus 77

0.0 km/h aus ---

-3.3 C

4.7 C

5.3 C

4.7 C

0 W/m

0.00 mm

02:10

5.2 C

1005.2 hpa

54 %

0.0 km/h aus 76

0.0 km/h aus ---

-3.4 C

4.6 C

5.2 C

4.6 C

0 W/m

0.00 mm

02:15

5.1 C

1005.2 hpa

54 %

0.0 km/h aus 70

0.0 km/h aus ---

-3.4 C

4.6 C

5.1 C

4.6 C

0 W/m

0.00 mm

02:20

4.9 C

1005.2 hpa

55 %

0.0 km/h aus 78

0.0 km/h aus ---

-3.4 C

4.4 C

4.9 C

4.4 C

0 W/m

0.00 mm

02:25

4.9 C

1005.2 hpa

56 %

0.0 km/h aus 75

0.0 km/h aus ---

-3.2 C

4.3 C

4.9 C

4.3 C

0 W/m

0.00 mm

02:30

4.8 C

1005.1 hpa

56 %

0.0 km/h aus 74

0.0 km/h aus ---

-3.3 C

4.2 C

4.8 C

4.2 C

0 W/m

0.00 mm

02:35

4.6 C

1005.1 hpa

58 %

0.0 km/h aus 68

0.0 km/h aus ---

-3.0 C

4.1 C

4.6 C

4.1 C

0 W/m

0.00 mm

02:40

4.4 C

1005.1 hpa

57 %

0.0 km/h aus 80

0.0 km/h aus ---

-3.4 C

3.9 C

4.4 C

3.9 C

0 W/m

0.00 mm

02:45

4.1 C

1005.0 hpa

58 %

0.0 km/h aus 75

0.0 km/h aus ---

-3.4 C

3.6 C

4.1 C

3.6 C

0 W/m

0.00 mm

02:50

3.9 C

1005.0 hpa

58 %

0.0 km/h aus 78

0.0 km/h aus ---

-3.6 C

3.4 C

3.9 C

3.4 C

0 W/m

0.00 mm

02:55

3.7 C

1005.0 hpa

58 %

0.0 km/h aus 74

0.0 km/h aus ---

-3.8 C

3.3 C

3.7 C

3.3 C

0 W/m

0.00 mm

03:00

3.6 C

1004.8 hpa

58 %

0.0 km/h aus 81

0.0 km/h aus ---

-3.9 C

3.1 C

3.6 C

3.1 C

0 W/m

0.00 mm

03:05

3.4 C

1004.8 hpa

59 %

0.0 km/h aus 77

0.0 km/h aus ---

-3.8 C

3.0 C

3.4 C

3.0 C

0 W/m

0.00 mm

03:10

3.3 C

1004.8 hpa

60 %

0.0 km/h aus 80

0.0 km/h aus ---

-3.8 C

2.8 C

3.3 C

2.8 C

0 W/m

0.00 mm

03:15

3.1 C

1004.6 hpa

60 %

0.0 km/h aus 75

0.0 km/h aus ---

-4.0 C

2.6 C

3.1 C

2.6 C

0 W/m

0.00 mm

03:20

2.9 C

1004.6 hpa

61 %

0.0 km/h aus 76

0.0 km/h aus ---

-3.9 C

2.4 C

2.9 C

2.4 C

0 W/m

0.00 mm

03:25

2.7 C

1004.6 hpa

62 %

0.0 km/h aus 87

0.0 km/h aus ---

-3.8 C

2.3 C

2.7 C

2.3 C

0 W/m

0.00 mm

03:30

2.6 C

1004.6 hpa

63 %

0.0 km/h aus 86

0.0 km/h aus ---

-3.8 C

2.2 C

2.6 C

2.2 C

0 W/m

0.00 mm

03:35

2.4 C

1004.6 hpa

64 %

0.0 km/h aus 85

0.0 km/h aus ---

-3.7 C

2.1 C

2.4 C

2.1 C

0 W/m

0.00 mm

03:40

2.3 C

1004.6 hpa

64 %

0.0 km/h aus 86

0.0 km/h aus ---

-3.8 C

1.9 C

2.3 C

1.9 C

0 W/m

0.00 mm

03:45

2.1 C

1004.6 hpa

64 %

0.0 km/h aus 83

0.0 km/h aus ---

-4.0 C

1.7 C

2.1 C

1.7 C

0 W/m

0.00 mm

03:50

2.0 C

1004.6 hpa

64 %

0.0 km/h aus 79

0.0 km/h aus ---

-4.1 C

1.6 C

2.0 C

1.6 C

0 W/m

0.00 mm

03:55

1.8 C

1004.6 hpa

64 %

0.0 km/h aus 74

0.0 km/h aus ---

-4.3 C

1.4 C

1.8 C

1.4 C

0 W/m

0.00 mm

04:00

1.7 C

1004.6 hpa

64 %

0.0 km/h aus 83

0.0 km/h aus ---

-4.4 C

1.4 C

1.7 C

1.4 C

0 W/m

0.00 mm

04:05

1.6 C

1004.6 hpa

65 %

0.0 km/h aus 80

0.0 km/h aus ---

-4.3 C

1.2 C

1.6 C

1.2 C

0 W/m

0.00 mm

04:10

1.4 C

1004.6 hpa

65 %

0.0 km/h aus 81

0.0 km/h aus ---

-4.4 C

1.1 C

1.4 C

1.1 C

0 W/m

0.00 mm

04:15

1.3 C

1004.4 hpa

65 %

0.0 km/h aus 83

0.0 km/h aus ---

-4.5 C

1.0 C

1.3 C

1.0 C

0 W/m

0.00 mm

04:20

1.3 C

1004.4 hpa

66 %

0.0 km/h aus 82

0.0 km/h aus ---

-4.4 C

0.9 C

1.3 C

0.9 C

0 W/m

0.00 mm

04:25

1.2 C

1004.4 hpa

66 %

0.0 km/h aus 78

0.0 km/h aus ---

-4.5 C

0.8 C

1.2 C

0.8 C

0 W/m

0.00 mm

04:30

1.1 C

1004.3 hpa

67 %

0.0 km/h aus 87

0.0 km/h aus ---

-4.4 C

0.7 C

1.1 C

0.7 C

0 W/m

0.00 mm

04:35

0.9 C

1004.3 hpa

67 %

0.0 km/h aus 87

0.0 km/h aus ---

-4.5 C

0.6 C

0.9 C

0.6 C

0 W/m

0.00 mm

04:40

0.8 C

1004.3 hpa

67 %

0.0 km/h aus 85

0.0 km/h aus ---

-4.6 C

0.5 C

0.8 C

0.5 C

0 W/m

0.00 mm

04:45

0.8 C

1004.1 hpa

67 %

0.0 km/h aus 87

0.0 km/h aus ---

-4.7 C

0.4 C

0.8 C

0.4 C

0 W/m

0.00 mm

04:50

0.7 C

1004.1 hpa

67 %

0.0 km/h aus 81

0.0 km/h aus ---

-4.8 C

0.3 C

0.7 C

0.3 C

0 W/m

0.00 mm

04:55

0.6 C

1004.1 hpa

68 %

0.0 km/h aus 88

0.0 km/h aus ---

-4.6 C

0.3 C

0.6 C

0.3 C

0 W/m

0.00 mm

05:00

0.6 C

1004.1 hpa

68 %

0.0 km/h aus 89

0.0 km/h aus ---

-4.7 C

0.3 C

0.6 C

0.3 C

0 W/m

0.00 mm

05:05

0.4 C

1004.1 hpa

68 %

0.0 km/h aus 83

0.0 km/h aus ---

-4.8 C

0.2 C

0.4 C

0.2 C

0 W/m

0.00 mm

05:10

0.4 C

1004.1 hpa

68 %

0.0 km/h aus 88

0.0 km/h aus ---

-4.8 C

0.1 C

0.4 C

0.1 C

0 W/m

0.00 mm

05:15

0.3 C

1004.1 hpa

69 %

0.0 km/h aus 89

0.0 km/h aus ---

-4.7 C

0.1 C

0.3 C

0.1 C

0 W/m

0.00 mm

05:20

0.3 C

1004.1 hpa

70 %

0.0 km/h aus 87

0.0 km/h aus ---

-4.6 C

0.0 C

0.3 C

0.0 C

0 W/m

0.00 mm

05:25

0.2 C

1004.1 hpa

69 %

0.0 km/h aus 85

0.0 km/h aus ---

-4.9 C

-0.1 C

0.2 C

-0.1 C

0 W/m

0.00 mm

05:30

0.1 C

1004.1 hpa

70 %

0.0 km/h aus 92

0.0 km/h aus ---

-4.7 C

-0.2 C

0.1 C

-0.2 C

0 W/m

0.00 mm

05:35

0.1 C

1004.1 hpa

70 %

0.0 km/h aus 89

0.0 km/h aus ---

-4.8 C

-0.2 C

0.1 C

-0.2 C

0 W/m

0.00 mm

05:40

0.0 C

1004.1 hpa

71 %

0.0 km/h aus 91

0.0 km/h aus ---

-4.6 C

-0.3 C

0.0 C

-0.3 C

0 W/m

0.00 mm

05:45

-0.1 C

1004.1 hpa

71 %

0.0 km/h aus 88

0.0 km/h aus ---

-4.7 C

-0.3 C

-0.1 C

-0.3 C

0 W/m

0.00 mm

05:50

-0.1 C

1004.1 hpa

72 %

0.0 km/h aus 88

0.0 km/h aus ---

-4.6 C

-0.4 C

-0.1 C

-0.4 C

0 W/m

0.00 mm

05:55

-0.2 C

1004.1 hpa

72 %

0.0 km/h aus 88

0.0 km/h aus ---

-4.6 C

-0.4 C

-0.2 C

-0.4 C

3 W/m

0.00 mm

06:00

-0.2 C

1004.2 hpa

73 %

0.0 km/h aus 96

0.0 km/h aus ---

-4.4 C

-0.4 C

-0.2 C

-0.4 C

7 W/m

0.00 mm

06:05

-0.2 C

1004.2 hpa

73 %

0.0 km/h aus 106

0.0 km/h aus ---

-4.5 C

-0.4 C

-0.2 C

-0.4 C

10 W/m

0.00 mm

06:10

-0.2 C

1004.2 hpa

74 %

0.0 km/h aus 107

0.0 km/h aus ---

-4.3 C

-0.4 C

-0.2 C

-0.4 C

11 W/m

0.00 mm

06:15

-0.3 C

1004.1 hpa

74 %

0.0 km/h aus 103

0.0 km/h aus ---

-4.4 C

-0.5 C

-0.3 C

-0.5 C

14 W/m

0.00 mm

06:20

-0.3 C

1004.1 hpa

74 %

0.0 km/h aus 96

0.0 km/h aus ---

-4.4 C

-0.5 C

-0.3 C

-0.5 C

17 W/m

0.00 mm

06:25

-0.3 C

1004.1 hpa

75 %

0.0 km/h aus 102

0.0 km/h aus ---

-4.2 C

-0.6 C

-0.3 C

-0.6 C

19 W/m

0.00 mm

06:30

-0.4 C

1004.1 hpa

75 %

0.0 km/h aus 106

0.0 km/h aus ---

-4.3 C

-0.6 C

-0.4 C

-0.6 C

22 W/m

0.00 mm

06:35

-0.4 C

1004.1 hpa

76 %

0.0 km/h aus 109

0.0 km/h aus ---

-4.1 C

-0.6 C

-0.4 C

-0.6 C

24 W/m

0.00 mm

06:40

-0.4 C

1004.1 hpa

77 %

0.0 km/h aus 111

0.0 km/h aus ---

-3.9 C

-0.6 C

-0.4 C

-0.6 C

36 W/m

0.00 mm

06:45

-0.4 C

1004.1 hpa

77 %

0.0 km/h aus 117

0.0 km/h aus ---

-3.9 C

-0.6 C

-0.4 C

-0.6 C

35 W/m

0.00 mm

06:50

-0.3 C

1004.1 hpa

78 %

0.0 km/h aus 110

0.0 km/h aus ---

-3.7 C

-0.4 C

-0.3 C

-0.4 C

38 W/m

0.00 mm

06:55

-0.2 C

1004.1 hpa

79 %

0.0 km/h aus 105

0.0 km/h aus ---

-3.4 C

-0.3 C

-0.2 C

-0.3 C

59 W/m

0.00 mm

07:00

0.0 C

1004.1 hpa

79 %

3.2 km/h aus 101

4.8 km/h aus NNE

-3.2 C

-0.7 C

-0.6 C

-0.2 C

54 W/m

0.00 mm

07:05

0.2 C

1004.1 hpa

80 %

1.6 km/h aus 86

6.4 km/h aus NNE

-2.8 C

0.1 C

0.2 C

0.1 C

85 W/m

0.00 mm

07:10

0.4 C

1004.1 hpa

80 %

1.6 km/h aus 116

6.4 km/h aus NNE

-2.6 C

0.3 C

0.4 C

0.3 C

102 W/m

0.00 mm

07:15

0.8 C

1004.1 hpa

80 %

3.2 km/h aus 117

8.0 km/h aus NNE

-2.2 C

0.1 C

0.3 C

0.6 C

117 W/m

0.00 mm

07:20

1.2 C

1004.1 hpa

80 %

3.2 km/h aus 117

4.8 km/h aus NNE

-1.8 C

0.6 C

0.8 C

1.0 C

133 W/m

0.00 mm

07:25

1.7 C

1004.1 hpa

80 %

0.0 km/h aus 117

4.8 km/h aus NNE

-1.4 C

1.6 C

1.7 C

1.6 C

149 W/m

0.00 mm

07:30

2.2 C

1004.1 hpa

78 %

1.6 km/h aus 114

6.4 km/h aus NNE

-1.3 C

2.0 C

2.2 C

2.0 C

166 W/m

0.00 mm

07:35

2.6 C

1004.1 hpa

77 %

3.2 km/h aus 114

8.0 km/h aus NNE

-1.0 C

2.1 C

2.3 C

2.4 C

182 W/m

0.00 mm

07:40

3.1 C

1004.1 hpa

75 %

1.6 km/h aus 114

8.0 km/h aus NE

-0.9 C

2.9 C

3.1 C

2.9 C

199 W/m

0.00 mm

07:45

3.6 C

1004.0 hpa

74 %

1.6 km/h aus 117

6.4 km/h aus NE

-0.6 C

3.3 C

3.6 C

3.3 C

215 W/m

0.00 mm

07:50

4.0 C

1004.0 hpa

72 %

0.0 km/h aus 115

4.8 km/h aus NE

-0.6 C

3.7 C

4.0 C

3.7 C

233 W/m

0.00 mm

07:55

4.4 C

1004.0 hpa

70 %

0.0 km/h aus 114

0.0 km/h aus ---

-0.6 C

4.1 C

4.4 C

4.1 C

249 W/m

0.00 mm

08:00

4.7 C

1004.0 hpa

68 %

0.0 km/h aus 111

0.0 km/h aus ---

-0.7 C

4.4 C

4.7 C

4.4 C

264 W/m

0.00 mm

08:05

4.9 C

1004.0 hpa

67 %

0.0 km/h aus 107

4.8 km/h aus NE

-0.7 C

4.6 C

4.9 C

4.6 C

279 W/m

0.00 mm

08:10

5.3 C

1004.0 hpa

66 %

3.2 km/h aus 101

6.4 km/h aus NE

-0.5 C

4.9 C

5.3 C

4.9 C

292 W/m

0.00 mm

08:15

5.7 C

1003.9 hpa

66 %

0.0 km/h aus 107

3.2 km/h aus NE

-0.2 C

5.3 C

5.7 C

5.3 C

306 W/m

0.00 mm

08:20

6.0 C

1003.9 hpa

64 %

1.6 km/h aus 103

4.8 km/h aus NE

-0.3 C

5.6 C

6.0 C

5.6 C

320 W/m

0.00 mm

08:25

6.2 C

1003.9 hpa

64 %

0.0 km/h aus 103

0.0 km/h aus ---

-0.1 C

5.8 C

6.2 C

5.8 C

332 W/m

0.00 mm

08:30

6.6 C

1003.7 hpa

63 %

0.0 km/h aus 103

0.0 km/h aus ---

0.0 C

6.2 C

6.6 C

6.2 C

348 W/m

0.00 mm

08:35

6.9 C

1003.7 hpa

62 %

1.6 km/h aus 107

3.2 km/h aus NE

0.2 C

6.5 C

6.9 C

6.5 C

364 W/m

0.00 mm

08:40

7.2 C

1003.7 hpa

60 %

3.2 km/h aus 97

8.0 km/h aus NE

0.0 C

6.8 C

7.2 C

6.8 C

376 W/m

0.00 mm

08:45

7.4 C

1003.6 hpa

59 %

1.6 km/h aus 106

6.4 km/h aus NE

-0.1 C

7.0 C

7.4 C

7.0 C

389 W/m

0.00 mm

08:50

7.7 C

1003.6 hpa

59 %

1.6 km/h aus 105

4.8 km/h aus NNE

0.2 C

7.2 C

7.7 C

7.2 C

402 W/m

0.00 mm

08:55

8.0 C

1003.6 hpa

58 %

0.0 km/h aus 108

4.8 km/h aus NNE

0.2 C

7.5 C

8.0 C

7.5 C

415 W/m

0.00 mm

09:00

8.4 C

1003.6 hpa

56 %

1.6 km/h aus 111

6.4 km/h aus NNE

0.2 C

7.9 C

8.4 C

7.9 C

429 W/m

0.00 mm

09:05

8.8 C

1003.6 hpa

54 %

1.6 km/h aus 113

6.4 km/h aus NNE

0.0 C

8.2 C

8.8 C

8.2 C

440 W/m

0.00 mm

09:10

8.8 C

1003.6 hpa

53 %

0.0 km/h aus 116

0.0 km/h aus ---

-0.2 C

8.2 C

8.8 C

8.2 C

453 W/m

0.00 mm

09:15

8.8 C

1003.6 hpa

53 %

0.0 km/h aus 116

0.0 km/h aus ---

-0.3 C

8.2 C

8.8 C

8.2 C

462 W/m

0.00 mm

09:20

9.1 C

1003.6 hpa

52 %

1.6 km/h aus 113

4.8 km/h aus NNW

-0.3 C

8.4 C

9.1 C

8.4 C

472 W/m

0.00 mm

09:25

9.2 C

1003.6 hpa

52 %

1.6 km/h aus 114

4.8 km/h aus NNW

-0.2 C

8.6 C

9.2 C

8.6 C

483 W/m

0.00 mm

09:30

9.3 C

1003.6 hpa

51 %

0.0 km/h aus 111

0.0 km/h aus ---

-0.4 C

8.6 C

9.3 C

8.6 C

492 W/m

0.00 mm

09:35

9.5 C

1003.6 hpa

51 %

0.0 km/h aus 84

0.0 km/h aus ---

-0.1 C

8.8 C

9.5 C

8.8 C

503 W/m

0.00 mm

09:40

9.7 C

1003.6 hpa

51 %

0.0 km/h aus 98

0.0 km/h aus ---

0.0 C

9.0 C

9.7 C

9.0 C

512 W/m

0.00 mm

09:45

10.3 C

1003.5 hpa

50 %

0.0 km/h aus 77

0.0 km/h aus ---

0.3 C

9.6 C

10.3 C

9.6 C

518 W/m

0.00 mm

09:50

10.6 C

1003.5 hpa

49 %

0.0 km/h aus 77

0.0 km/h aus ---

0.3 C

9.8 C

10.6 C

9.8 C

527 W/m

0.00 mm

09:55

10.4 C

1003.5 hpa

49 %

0.0 km/h aus 75

0.0 km/h aus ---

0.2 C

9.7 C

10.4 C

9.7 C

534 W/m

0.00 mm

10:00

11.1 C

1003.5 hpa

50 %

0.0 km/h aus 73

6.4 km/h aus N

1.0 C

10.2 C

11.1 C

10.2 C

540 W/m

0.00 mm

10:05

11.2 C

1003.5 hpa

48 %

1.6 km/h aus 71

6.4 km/h aus N

0.6 C

10.3 C

11.2 C

10.3 C

547 W/m

0.00 mm

10:10

11.0 C

1003.5 hpa

50 %

1.6 km/h aus 72

4.8 km/h aus N

1.0 C

10.2 C

11.0 C

10.2 C

552 W/m

0.00 mm

10:15

10.9 C

1003.3 hpa

47 %

1.6 km/h aus 69

6.4 km/h aus N

0.1 C

10.1 C

10.9 C

10.1 C

552 W/m

0.00 mm

10:20

11.2 C

1003.3 hpa

51 %

1.6 km/h aus 70

8.0 km/h aus NNE

1.4 C

10.3 C

11.2 C

10.3 C

559 W/m

0.00 mm

10:25

11.7 C

1003.3 hpa

48 %

3.2 km/h aus 56

8.0 km/h aus N

1.1 C

10.8 C

11.7 C

10.8 C

559 W/m

0.00 mm

10:30

12.1 C

1003.1 hpa

50 %

1.6 km/h aus 62

8.0 km/h aus N

1.9 C

11.1 C

12.1 C

11.1 C

559 W/m

0.00 mm

10:35

12.3 C

1003.1 hpa

46 %

1.6 km/h aus 62

8.0 km/h aus N

1.0 C

11.2 C

12.3 C

11.2 C

559 W/m

0.00 mm

10:40

12.3 C

1003.1 hpa

45 %

4.8 km/h aus 56

8.0 km/h aus NW

0.7 C

11.2 C

12.3 C

11.2 C

575 W/m

0.00 mm

10:45

12.5 C

1003.1 hpa

48 %

3.2 km/h aus 61

9.7 km/h aus NNE

1.8 C

11.4 C

12.5 C

11.4 C

575 W/m

0.00 mm

10:50

12.6 C

1003.1 hpa

46 %

1.6 km/h aus 67

9.7 km/h aus NE

1.2 C

11.4 C

12.6 C

11.4 C

575 W/m

0.00 mm

10:55

13.0 C

1003.1 hpa

48 %

1.6 km/h aus 71

8.0 km/h aus ENE

2.2 C

11.9 C

13.0 C

11.9 C

592 W/m

0.00 mm

11:00

12.8 C

1003.1 hpa

47 %

0.0 km/h aus 63

6.4 km/h aus NE

1.7 C

11.7 C

12.8 C

11.7 C

592 W/m

0.00 mm

11:05

13.1 C

1003.1 hpa

46 %

1.6 km/h aus 67

8.0 km/h aus NNW

1.7 C

11.9 C

13.1 C

11.9 C

592 W/m

0.00 mm

11:10

13.4 C

1003.1 hpa

46 %

4.8 km/h aus 64

9.7 km/h aus N

2.0 C

12.3 C

13.4 C

12.3 C

592 W/m

0.00 mm

11:15

13.6 C

1003.0 hpa

48 %

0.0 km/h aus 66

4.8 km/h aus NNE

2.8 C

12.5 C

13.6 C

12.5 C

592 W/m

0.00 mm

11:20

13.4 C

1003.0 hpa

45 %

0.0 km/h aus 65

3.2 km/h aus NNE

1.7 C

12.2 C

13.4 C

12.2 C

599 W/m

0.00 mm

11:25

13.9 C

1003.0 hpa

44 %

1.6 km/h aus 61

6.4 km/h aus NNE

1.9 C

12.7 C

13.9 C

12.7 C

599 W/m

0.00 mm

11:30

13.6 C

1003.0 hpa

45 %

3.2 km/h aus 65

8.0 km/h aus ENE

1.8 C

12.3 C

13.6 C

12.3 C

598 W/m

0.00 mm

11:35

13.7 C

1003.0 hpa

45 %

1.6 km/h aus 75

4.8 km/h aus ENE

1.9 C

12.4 C

13.7 C

12.4 C

606 W/m

0.00 mm

11:40

14.2 C

1003.0 hpa

46 %

1.6 km/h aus 71

11.3 km/h aus NE

2.7 C

12.9 C

14.2 C

12.9 C

606 W/m

0.00 mm

11:45

14.4 C

1002.8 hpa

45 %

3.2 km/h aus 77

8.0 km/h aus NE

2.6 C

13.2 C

14.4 C

13.2 C

609 W/m

0.00 mm

11:50

14.5 C

1002.8 hpa

44 %

1.6 km/h aus 76

6.4 km/h aus ENE

2.4 C

13.2 C

14.5 C

13.2 C

619 W/m

0.00 mm

11:55

15.0 C

1002.8 hpa

45 %

3.2 km/h aus 73

11.3 km/h aus N

3.2 C

13.7 C

15.0 C

13.7 C

617 W/m

0.00 mm

12:00

14.8 C

1002.6 hpa

45 %

3.2 km/h aus 83

9.7 km/h aus N

3.0 C

13.6 C

14.8 C

13.6 C

614 W/m

0.00 mm

12:05

14.8 C

1002.6 hpa

43 %

6.4 km/h aus 75

16.1 km/h aus ENE

2.4 C

13.5 C

14.8 C

13.5 C

615 W/m

0.00 mm

12:10

15.4 C

1002.6 hpa

45 %

4.8 km/h aus 70

16.1 km/h aus N

3.6 C

14.2 C

15.4 C

14.2 C

618 W/m

0.00 mm

12:15

15.1 C

1002.5 hpa

45 %

3.2 km/h aus 49

9.7 km/h aus NNE

3.3 C

13.8 C

15.1 C

13.8 C

619 W/m

0.00 mm

12:20

15.1 C

1002.5 hpa

44 %

3.2 km/h aus 51

9.7 km/h aus NE

2.9 C

13.8 C

15.1 C

13.8 C

624 W/m

0.00 mm

12:25

15.4 C

1002.5 hpa

45 %

4.8 km/h aus 45

17.7 km/h aus NNE

3.6 C

14.2 C

15.4 C

14.2 C

624 W/m

0.00 mm

12:30

15.4 C

1002.5 hpa

44 %

3.2 km/h aus 46

9.7 km/h aus NNE

3.2 C

14.1 C

15.4 C

14.1 C

624 W/m

0.00 mm

12:35

15.8 C

1002.5 hpa

45 %

1.6 km/h aus 47

8.0 km/h aus NE

3.9 C

14.5 C

15.8 C

14.5 C

626 W/m

0.00 mm

12:40

15.7 C

1002.5 hpa

43 %

6.4 km/h aus 52

14.5 km/h aus NE

3.1 C

14.3 C

15.7 C

14.3 C

626 W/m

0.00 mm

12:45

15.7 C

1002.2 hpa

44 %

1.6 km/h aus 46

9.7 km/h aus NNE

3.4 C

14.3 C

15.7 C

14.3 C

626 W/m

0.00 mm

12:50

15.3 C

1002.2 hpa

42 %

3.2 km/h aus 39

8.0 km/h aus NNE

2.5 C

13.9 C

15.3 C

13.9 C

626 W/m

0.00 mm

12:55

16.1 C

1002.2 hpa

44 %

4.8 km/h aus 49

16.1 km/h aus NE

3.8 C

14.8 C

16.1 C

14.8 C

621 W/m

0.00 mm

13:00

16.1 C

1002.0 hpa

47 %

4.8 km/h aus 53

12.9 km/h aus N

4.8 C

14.9 C

16.1 C

14.9 C

631 W/m

0.00 mm

13:05

16.4 C

1002.0 hpa

43 %

3.2 km/h aus 45

14.5 km/h aus N

3.8 C

15.1 C

16.4 C

15.1 C

628 W/m

0.00 mm

13:10

16.5 C

1002.0 hpa

43 %

3.2 km/h aus 46

11.3 km/h aus ESE

3.9 C

15.1 C

16.5 C

15.1 C

628 W/m

0.00 mm

13:15

16.7 C

1001.9 hpa

45 %

3.2 km/h aus 43

11.3 km/h aus N

4.7 C

15.4 C

16.7 C

15.4 C

628 W/m

0.00 mm

13:20

16.9 C

1001.9 hpa

45 %

4.8 km/h aus 40

11.3 km/h aus NNE

4.9 C

15.7 C

16.9 C

15.7 C

628 W/m

0.00 mm

13:25

16.7 C

1001.9 hpa

42 %

1.6 km/h aus 49

8.0 km/h aus NNE

3.7 C

15.3 C

16.7 C

15.3 C

564 W/m

0.00 mm

13:30

16.7 C

1001.6 hpa

42 %

1.6 km/h aus 57

8.0 km/h aus NNE

3.7 C

15.3 C

16.7 C

15.3 C

603 W/m

0.00 mm

13:35

16.9 C

1001.6 hpa

44 %

3.2 km/h aus 79

9.7 km/h aus ENE

4.6 C

15.6 C

16.9 C

15.6 C

600 W/m

0.00 mm

13:40

17.1 C

1001.6 hpa

42 %

0.0 km/h aus 60

4.8 km/h aus NE

4.0 C

15.7 C

17.1 C

15.7 C

584 W/m

0.00 mm

13:45

16.8 C

1001.4 hpa

41 %

0.0 km/h aus 45

3.2 km/h aus NW

3.4 C

15.3 C

16.8 C

15.3 C

584 W/m

0.00 mm

13:50

17.3 C

1001.4 hpa

42 %

1.6 km/h aus 46

6.4 km/h aus N

4.2 C

15.9 C

17.3 C

15.9 C

584 W/m

0.00 mm

13:55

17.6 C

1001.4 hpa

41 %

0.0 km/h aus 41

6.4 km/h aus NNE

4.2 C

16.2 C

17.6 C

16.2 C

584 W/m

0.00 mm

14:00

17.8 C

1001.2 hpa

41 %

0.0 km/h aus 49

1.6 km/h aus N

4.3 C

16.3 C

17.8 C

16.3 C

617 W/m

0.00 mm

14:05

17.4 C

1001.2 hpa

38 %

1.6 km/h aus 55

6.4 km/h aus WNW

3.0 C

15.8 C

17.4 C

15.8 C

615 W/m

0.00 mm

14:10

17.4 C

1001.2 hpa

38 %

6.4 km/h aus 56

11.3 km/h aus NNE

3.0 C

15.8 C

17.4 C

15.8 C

595 W/m

0.00 mm

14:15

17.6 C

1001.1 hpa

41 %

1.6 km/h aus 58

8.0 km/h aus NE

4.2 C

16.2 C

17.6 C

16.2 C

624 W/m

0.00 mm

14:20

17.4 C

1001.1 hpa

40 %

4.8 km/h aus 64

14.5 km/h aus NE

3.6 C

15.9 C

17.4 C

15.9 C

615 W/m

0.00 mm

14:25

18.2 C

1001.1 hpa

38 %

3.2 km/h aus 91

9.7 km/h aus NE

3.7 C

16.6 C

18.2 C

16.6 C

612 W/m

0.00 mm

14:30

17.9 C

1000.9 hpa

40 %

3.2 km/h aus 62

11.3 km/h aus ESE

4.1 C

16.4 C

17.9 C

16.4 C

612 W/m

0.00 mm

14:35

17.9 C

1000.9 hpa

38 %

4.8 km/h aus 61

14.5 km/h aus NNE

3.4 C

16.3 C

17.9 C

16.3 C

612 W/m

0.00 mm

14:40

17.8 C

1000.9 hpa

40 %

0.0 km/h aus 58

0.0 km/h aus ---

4.0 C

16.3 C

17.8 C

16.3 C

612 W/m

0.00 mm

14:45

18.2 C

1000.9 hpa

41 %

0.0 km/h aus 52

4.8 km/h aus WNW

4.7 C

16.8 C

18.2 C

16.8 C

612 W/m

0.00 mm

14:50

18.4 C

1000.9 hpa

39 %

3.2 km/h aus 59

16.1 km/h aus NNE

4.2 C

16.9 C

18.4 C

16.9 C

612 W/m

0.00 mm

14:55

17.9 C

1000.9 hpa

37 %

1.6 km/h aus 79

12.9 km/h aus NE

3.0 C

16.3 C

17.9 C

16.3 C

594 W/m

0.00 mm

15:00

18.2 C

1000.8 hpa

39 %

6.4 km/h aus 97

17.7 km/h aus NE

4.0 C

16.7 C

18.2 C

16.7 C

601 W/m

0.00 mm

15:05

18.2 C

1000.8 hpa

36 %

3.2 km/h aus 92

11.3 km/h aus NE

2.8 C

16.4 C

18.2 C

16.4 C

605 W/m

0.00 mm

15:10

18.1 C

1000.8 hpa

39 %

6.4 km/h aus 68

20.9 km/h aus NE

3.9 C

16.6 C

18.1 C

16.6 C

603 W/m

0.00 mm

15:15

18.6 C

1000.4 hpa

38 %

1.6 km/h aus 65

9.7 km/h aus NE

4.0 C

17.0 C

18.6 C

17.0 C

603 W/m

0.00 mm

15:20

18.7 C

1000.4 hpa

39 %

6.4 km/h aus 69

20.9 km/h aus N

4.5 C

17.2 C

18.7 C

17.2 C

598 W/m

0.00 mm

15:25

19.0 C

1000.4 hpa

39 %

4.8 km/h aus 75

11.3 km/h aus NNE

4.7 C

17.5 C

19.0 C

17.5 C

596 W/m

0.00 mm

15:30

19.1 C

1000.4 hpa

39 %

6.4 km/h aus 84

14.5 km/h aus NNE

4.8 C

17.6 C

19.1 C

17.6 C

566 W/m

0.00 mm

15:35

18.9 C

1000.4 hpa

35 %

1.6 km/h aus 75

9.7 km/h aus N

3.1 C

17.2 C

18.9 C

17.2 C

485 W/m

0.00 mm

15:40

18.8 C

1000.4 hpa

36 %

3.2 km/h aus 114

16.1 km/h aus N

3.4 C

17.2 C

18.8 C

17.2 C

583 W/m

0.00 mm

15:45

19.2 C

1000.2 hpa

37 %

4.8 km/h aus 113

11.3 km/h aus NNE

4.2 C

17.6 C

19.2 C

17.6 C

579 W/m

0.00 mm

15:50

19.3 C

1000.2 hpa

37 %

3.2 km/h aus 117

9.7 km/h aus NE

4.3 C

17.7 C

19.3 C

17.7 C

577 W/m

0.00 mm

15:55

18.7 C

1000.2 hpa

34 %

1.6 km/h aus 117

8.0 km/h aus NE

2.5 C

16.9 C

18.7 C

16.9 C

579 W/m

0.00 mm

16:00

18.8 C

999.9 hpa

37 %

1.6 km/h aus 116

6.4 km/h aus NNW

3.8 C

17.2 C

18.8 C

17.2 C

535 W/m

0.00 mm

16:05

18.8 C

999.9 hpa

36 %

4.8 km/h aus 114

22.5 km/h aus ENE

3.4 C

17.2 C

18.8 C

17.2 C

512 W/m

0.00 mm

16:10

18.7 C

999.9 hpa

35 %

4.8 km/h aus 115

16.1 km/h aus ENE

2.9 C

16.9 C

18.7 C

16.9 C

546 W/m

0.00 mm

16:15

18.9 C

999.8 hpa

38 %

0.0 km/h aus 118

3.2 km/h aus SE

4.3 C

17.3 C

18.9 C

17.3 C

559 W/m

0.00 mm

16:20

19.0 C

999.8 hpa

36 %

4.8 km/h aus 116

16.1 km/h aus NNW

3.6 C

17.3 C

19.0 C

17.3 C

488 W/m

0.00 mm

16:25

19.3 C

999.8 hpa

38 %

1.6 km/h aus 115

12.9 km/h aus NNE

4.6 C

17.8 C

19.3 C

17.8 C

544 W/m

0.00 mm

16:30

19.4 C

999.7 hpa

35 %

8.0 km/h aus 116

19.3 km/h aus N

3.5 C

17.7 C

19.4 C

17.7 C

535 W/m

0.00 mm

16:35

19.2 C

999.7 hpa

37 %

0.0 km/h aus 117

3.2 km/h aus N

4.1 C

17.6 C

19.2 C

17.6 C

527 W/m

0.00 mm

16:40

19.2 C

999.7 hpa

35 %

0.0 km/h aus 116

3.2 km/h aus NW

3.3 C

17.4 C

19.2 C

17.4 C

530 W/m

0.00 mm

16:45

19.4 C

999.4 hpa

35 %

9.7 km/h aus 114

25.7 km/h aus NNE

3.6 C

17.7 C

19.4 C

17.7 C

496 W/m

0.00 mm

16:50

19.1 C

999.4 hpa

34 %

1.6 km/h aus 117

11.3 km/h aus N

2.9 C

17.3 C

19.1 C

17.3 C

480 W/m

0.00 mm

16:55

19.1 C

999.4 hpa

34 %

0.0 km/h aus 116

8.0 km/h aus NNE

2.9 C

17.3 C

19.1 C

17.3 C

464 W/m

0.00 mm

17:00

19.2 C

999.2 hpa

36 %

1.6 km/h aus 117

6.4 km/h aus N

3.8 C

17.6 C

19.2 C

17.6 C

476 W/m

0.00 mm

17:05

19.4 C

999.2 hpa

34 %

3.2 km/h aus 114

11.3 km/h aus NE

3.1 C

17.6 C

19.4 C

17.6 C

427 W/m

0.00 mm

17:10

19.4 C

999.2 hpa

32 %

6.4 km/h aus 117

16.1 km/h aus N

2.3 C

17.6 C

19.4 C

17.6 C

403 W/m

0.00 mm

17:15

19.4 C

999.1 hpa

30 %

4.8 km/h aus 116

9.7 km/h aus ENE

1.4 C

17.4 C

19.4 C

17.4 C

425 W/m

0.00 mm

17:20

19.4 C

999.1 hpa

31 %

1.6 km/h aus 118

14.5 km/h aus ENE

1.8 C

17.4 C

19.4 C

17.4 C

414 W/m

0.00 mm

17:25

19.3 C

999.1 hpa

31 %

3.2 km/h aus 113

9.7 km/h aus NNE

1.7 C

17.3 C

19.3 C

17.3 C

417 W/m

0.00 mm

17:30

19.2 C

999.0 hpa

31 %

4.8 km/h aus 115

14.5 km/h aus NE

1.7 C

17.3 C

19.2 C

17.3 C

397 W/m

0.00 mm

17:35

19.0 C

999.0 hpa

30 %

3.2 km/h aus 117

11.3 km/h aus SSE

1.0 C

17.0 C

19.0 C

17.0 C

391 W/m

0.00 mm

17:40

19.1 C

999.0 hpa

31 %

1.6 km/h aus 116

14.5 km/h aus NE

1.6 C

17.2 C

19.1 C

17.2 C

395 W/m

0.00 mm

17:45

19.1 C

998.9 hpa

33 %

3.2 km/h aus 115

11.3 km/h aus NNE

2.4 C

17.3 C

19.1 C

17.3 C

353 W/m

0.00 mm

17:50

19.1 C

998.9 hpa

33 %

3.2 km/h aus 115

9.7 km/h aus NE

2.4 C

17.3 C

19.1 C

17.3 C

367 W/m

0.00 mm

17:55

19.1 C

998.9 hpa

32 %

3.2 km/h aus 117

14.5 km/h aus NNE

2.0 C

17.2 C

19.1 C

17.2 C

299 W/m

0.00 mm

18:00

19.1 C

998.9 hpa

32 %

1.6 km/h aus 116

9.7 km/h aus NE

2.0 C

17.2 C

19.1 C

17.2 C

342 W/m

0.00 mm

18:05

18.9 C

998.9 hpa

33 %

3.2 km/h aus 116

11.3 km/h aus NNE

2.3 C

17.1 C

18.9 C

17.1 C

316 W/m

0.00 mm

18:10

18.8 C

998.9 hpa

34 %

3.2 km/h aus 114

11.3 km/h aus N

2.6 C

17.0 C

18.8 C

17.0 C

299 W/m

0.00 mm

18:15

18.8 C

998.8 hpa

35 %

4.8 km/h aus 117

14.5 km/h aus N

3.0 C

17.1 C

18.8 C

17.1 C

318 W/m

0.00 mm

18:20

18.8 C

998.8 hpa

35 %

6.4 km/h aus 117

16.1 km/h aus N

3.0 C

17.1 C

18.8 C

17.1 C

275 W/m

0.00 mm

18:25

18.6 C

998.8 hpa

35 %

8.0 km/h aus 118

14.5 km/h aus NE

2.8 C

16.9 C

18.6 C

16.9 C

247 W/m

0.00 mm

18:30

18.3 C

998.8 hpa

37 %

3.2 km/h aus 115

9.7 km/h aus NNE

3.4 C

16.7 C

18.3 C

16.7 C

148 W/m

0.00 mm

18:35

18.2 C

998.8 hpa

36 %

1.6 km/h aus 115

6.4 km/h aus NNE

2.9 C

16.5 C

18.2 C

16.5 C

126 W/m

0.00 mm

18:40

18.1 C

998.8 hpa

38 %

0.0 km/h aus 117

3.2 km/h aus NNE

3.6 C

16.5 C

18.1 C

16.5 C

117 W/m

0.00 mm

18:45

17.9 C

998.8 hpa

36 %

4.8 km/h aus 116

17.7 km/h aus NE

2.6 C

16.2 C

17.9 C

16.2 C

116 W/m

0.00 mm

18:50

17.7 C

998.8 hpa

36 %

9.7 km/h aus 114

20.9 km/h aus NE

2.4 C

15.9 C

17.7 C

15.9 C

116 W/m

0.00 mm

18:55

17.6 C

998.8 hpa

37 %

4.8 km/h aus 115

14.5 km/h aus NE

2.7 C

15.9 C

17.6 C

15.9 C

99 W/m

0.00 mm

19:00

17.4 C

998.7 hpa

37 %

6.4 km/h aus 117

20.9 km/h aus NE

2.6 C

15.8 C

17.4 C

15.8 C

109 W/m

0.00 mm

19:05

17.4 C

998.7 hpa

38 %

4.8 km/h aus 117

14.5 km/h aus NE

3.0 C

15.8 C

17.4 C

15.8 C

127 W/m

0.00 mm

19:10

17.4 C

998.7 hpa

38 %

4.8 km/h aus 116

20.9 km/h aus NNE

3.0 C

15.8 C

17.4 C

15.8 C

114 W/m

0.00 mm

19:15

17.4 C

998.6 hpa

37 %

4.8 km/h aus 115

16.1 km/h aus NE

2.5 C

15.7 C

17.4 C

15.7 C

97 W/m

0.00 mm

19:20

17.3 C

998.6 hpa

37 %

6.4 km/h aus 115

19.3 km/h aus NNE

2.5 C

15.7 C

17.3 C

15.7 C

82 W/m

0.00 mm

19:25

17.3 C

998.6 hpa

38 %

3.2 km/h aus 118

16.1 km/h aus NNE

2.8 C

15.7 C

17.3 C

15.7 C

65 W/m

0.00 mm

19:30

17.2 C

998.4 hpa

38 %

6.4 km/h aus 117

17.7 km/h aus NE

2.7 C

15.6 C

17.2 C

15.6 C

64 W/m

0.00 mm

19:35

17.1 C

998.4 hpa

38 %

4.8 km/h aus 115

11.3 km/h aus NNE

2.7 C

15.5 C

17.1 C

15.5 C

56 W/m

0.00 mm

19:40

17.1 C

998.4 hpa

38 %

4.8 km/h aus 114

11.3 km/h aus NE

2.7 C

15.5 C

17.1 C

15.5 C

42 W/m

0.00 mm

19:45

17.1 C

998.3 hpa

37 %

6.4 km/h aus 116

19.3 km/h aus NE

2.2 C

15.4 C

17.1 C

15.4 C

35 W/m

0.00 mm

19:50

17.0 C

998.3 hpa

38 %

1.6 km/h aus 117

9.7 km/h aus NE

2.6 C

15.4 C

17.0 C

15.4 C

30 W/m

0.00 mm

19:55

16.9 C

998.3 hpa

38 %

3.2 km/h aus 117

9.7 km/h aus NNE

2.5 C

15.3 C

16.9 C

15.3 C

25 W/m

0.00 mm

20:00

16.8 C

998.4 hpa

39 %

3.2 km/h aus 113

11.3 km/h aus NE

2.7 C

15.2 C

16.8 C

15.2 C

14 W/m

0.00 mm

20:05

16.7 C

998.4 hpa

39 %

4.8 km/h aus 116

14.5 km/h aus N

2.7 C

15.2 C

16.7 C

15.2 C

10 W/m

0.00 mm

20:10

16.6 C

998.4 hpa

39 %

3.2 km/h aus 116

14.5 km/h aus NNE

2.6 C

15.1 C

16.6 C

15.1 C

8 W/m

0.00 mm

20:15

16.6 C

998.4 hpa

39 %

3.2 km/h aus 116

11.3 km/h aus NNE

2.5 C

15.0 C

16.6 C

15.0 C

6 W/m

0.00 mm

20:20

16.4 C

998.4 hpa

39 %

0.0 km/h aus 117

0.0 km/h aus ---

2.4 C

14.9 C

16.4 C

14.9 C

1 W/m

0.00 mm

20:25

16.4 C

998.4 hpa

40 %

0.0 km/h aus 114

3.2 km/h aus N

2.7 C

14.9 C

16.4 C

14.9 C

0 W/m

0.00 mm

20:30

16.3 C

998.8 hpa

40 %

0.0 km/h aus 115

0.0 km/h aus ---

2.7 C

14.8 C

16.3 C

14.8 C

0 W/m

0.00 mm

20:35

16.2 C

998.8 hpa

44 %

6.4 km/h aus 117

22.5 km/h aus S

3.9 C

14.8 C

16.2 C

14.8 C

0 W/m

0.00 mm

20:40

15.9 C

998.8 hpa

48 %

8.0 km/h aus 117

27.4 km/h aus S

4.9 C

14.7 C

15.9 C

14.7 C

0 W/m

0.00 mm

20:45

15.6 C

999.3 hpa

52 %

6.4 km/h aus 113

17.7 km/h aus SSE

5.7 C

14.6 C

15.6 C

14.6 C

0 W/m

0.00 mm

20:50

15.3 C

999.3 hpa

52 %

3.2 km/h aus 112

16.1 km/h aus SSE

5.5 C

14.3 C

15.3 C

14.3 C

0 W/m

0.00 mm

20:55

15.2 C

999.3 hpa

51 %

3.2 km/h aus 117

9.7 km/h aus SE

5.1 C

14.1 C

15.2 C

14.1 C

0 W/m

0.00 mm

21:00

15.0 C

999.3 hpa

51 %

4.8 km/h aus 116

16.1 km/h aus W

4.9 C

13.9 C

15.0 C

13.9 C

0 W/m

0.00 mm

21:05

14.9 C

999.3 hpa

53 %

1.6 km/h aus 117

6.4 km/h aus W

5.4 C

13.9 C

14.9 C

13.9 C

0 W/m

0.00 mm

21:10

14.8 C

999.3 hpa

56 %

1.6 km/h aus 116

16.1 km/h aus SSE

6.1 C

14.0 C

14.8 C

14.0 C

0 W/m

0.00 mm

21:15

14.7 C

999.5 hpa

54 %

8.0 km/h aus 115

16.1 km/h aus S

5.5 C

13.6 C

14.5 C

13.7 C

0 W/m

0.00 mm

21:20

14.4 C

999.5 hpa

57 %

14.5 km/h aus 116

24.1 km/h aus SSE

6.0 C

12.1 C

12.9 C

13.6 C

0 W/m

0.00 mm

21:25

14.1 C

999.5 hpa

58 %

9.7 km/h aus 117

17.7 km/h aus SSE

5.9 C

12.8 C

13.6 C

13.3 C

0 W/m

0.00 mm

21:30

13.9 C

999.3 hpa

57 %

4.8 km/h aus 117

16.1 km/h aus ESE

5.6 C

13.1 C

13.9 C

13.1 C

0 W/m

0.25 mm

21:35

13.9 C

999.3 hpa

57 %

1.6 km/h aus 117

6.4 km/h aus E

5.6 C

13.1 C

13.9 C

13.1 C

0 W/m

0.00 mm

21:40

13.9 C

999.3 hpa

57 %

1.6 km/h aus 115

6.4 km/h aus ENE

5.5 C

13.1 C

13.9 C

13.1 C

0 W/m

0.00 mm

21:45

13.8 C

999.4 hpa

58 %

3.2 km/h aus 115

8.0 km/h aus ENE

5.7 C

13.1 C

13.8 C

13.1 C

0 W/m

0.00 mm

21:50

13.8 C

999.4 hpa

58 %

0.0 km/h aus 116

4.8 km/h aus ENE

5.7 C

13.1 C

13.8 C

13.1 C

0 W/m

0.00 mm

21:55

13.8 C

999.4 hpa

60 %

0.0 km/h aus 117

4.8 km/h aus E

6.2 C

13.1 C

13.8 C

13.1 C

0 W/m

0.00 mm

22:00

13.8 C

999.3 hpa

61 %

0.0 km/h aus 115

3.2 km/h aus E

6.4 C

13.1 C

13.8 C

13.1 C

0 W/m

0.00 mm

22:05

13.7 C

999.3 hpa

60 %

0.0 km/h aus 115

0.0 km/h aus ---

6.0 C

12.9 C

13.7 C

12.9 C

0 W/m

0.00 mm

22:10

13.6 C

999.3 hpa

62 %

0.0 km/h aus 116

3.2 km/h aus E

6.4 C

12.9 C

13.6 C

12.9 C

0 W/m

0.00 mm

22:15

13.4 C

999.4 hpa

61 %

0.0 km/h aus 115

3.2 km/h aus E

6.1 C

12.8 C

13.4 C

12.8 C

0 W/m

0.00 mm

22:20

13.3 C

999.4 hpa

61 %

0.0 km/h aus 116

1.6 km/h aus E

6.0 C

12.7 C

13.3 C

12.7 C

0 W/m

0.00 mm

22:25

13.3 C

999.4 hpa

61 %

0.0 km/h aus 116

0.0 km/h aus ---

6.0 C

12.7 C

13.3 C

12.7 C

0 W/m

0.00 mm

22:30

13.3 C

999.3 hpa

62 %

0.0 km/h aus 115

3.2 km/h aus E

6.1 C

12.6 C

13.3 C

12.6 C

0 W/m

0.00 mm

22:35

13.3 C

999.3 hpa

62 %

0.0 km/h aus 116

4.8 km/h aus E

6.1 C

12.6 C

13.3 C

12.6 C

0 W/m

0.00 mm

22:40

13.2 C

999.3 hpa

62 %

3.2 km/h aus 118

6.4 km/h aus NNE

6.1 C

12.6 C

13.2 C

12.6 C

0 W/m

0.00 mm

22:45

13.2 C

999.2 hpa

63 %

1.6 km/h aus 117

6.4 km/h aus NE

6.3 C

12.6 C

13.2 C

12.6 C

0 W/m

0.00 mm

22:50

13.1 C

999.2 hpa

63 %

1.6 km/h aus 116

8.0 km/h aus NE

6.2 C

12.5 C

13.1 C

12.5 C

0 W/m

0.00 mm

22:55

13.1 C

999.2 hpa

64 %

1.6 km/h aus 114

4.8 km/h aus NE

6.4 C

12.5 C

13.1 C

12.5 C

0 W/m

0.00 mm

23:00

13.1 C

999.1 hpa

64 %

3.2 km/h aus 116

11.3 km/h aus NE

6.4 C

12.4 C

13.1 C

12.4 C

0 W/m

0.00 mm

23:05

13.0 C

999.1 hpa

64 %

0.0 km/h aus 117

4.8 km/h aus NNE

6.3 C

12.4 C

13.0 C

12.4 C

0 W/m

0.00 mm

23:10

12.9 C

999.1 hpa

65 %

1.6 km/h aus 117

11.3 km/h aus NNE

6.5 C

12.4 C

12.9 C

12.4 C

0 W/m

0.00 mm

23:15

12.9 C

998.7 hpa

66 %

6.4 km/h aus 117

17.7 km/h aus NNE

6.7 C

12.1 C

12.7 C

12.3 C

0 W/m

0.00 mm

23:20

12.8 C

998.7 hpa

66 %

9.7 km/h aus 114

24.1 km/h aus NNE

6.6 C

11.4 C

12.0 C

12.2 C

0 W/m

0.00 mm

23:25

12.7 C

998.7 hpa

66 %

8.0 km/h aus 113

20.9 km/h aus N

6.5 C

11.6 C

12.2 C

12.1 C

0 W/m

0.00 mm

23:30

12.6 C

998.4 hpa

66 %

8.0 km/h aus 116

19.3 km/h aus N

6.4 C

11.5 C

12.1 C

12.1 C

0 W/m

0.00 mm

23:35

12.6 C

998.4 hpa

66 %

9.7 km/h aus 117

19.3 km/h aus NNE

6.4 C

11.2 C

11.7 C

12.0 C

0 W/m

0.00 mm

23:40

12.5 C

998.4 hpa

66 %

8.0 km/h aus 117

17.7 km/h aus NE

6.3 C

11.4 C

11.9 C

12.0 C

0 W/m

0.00 mm

23:45

12.4 C

998.4 hpa

65 %

6.4 km/h aus 115

17.7 km/h aus NNE

6.0 C

11.6 C

12.2 C

11.9 C

0 W/m

0.00 mm

23:50

12.4 C

998.4 hpa

65 %

3.2 km/h aus 115

11.3 km/h aus NE

6.0 C

11.8 C

12.4 C

11.8 C

0 W/m

0.00 mm

23:55

12.3 C

998.4 hpa

65 %

3.2 km/h aus 117

11.3 km/h aus NE

5.9 C

11.8 C

12.3 C

11.8 C

0 W/m

0.00 mm